EW0943 Weather Reports


Display with metric or nautical units.
time (UTC)temp
F
wind
direction
speed
MPH
gust
MPH
rain 1hr
in
rain 24hr
in
rain mn
in
humidity
%
barometer
mb
20191022122636 47 260 17.0 26.0 0.00 0.29 0.00 79 992.1
20191022122136 47 246 20.0 26.0 0.00 0.29 0.00 79 992.1
20191022121636 47 200 15.0 21.0 0.00 0.29 0.00 79 992.0
20191022121136 47 210 8.0 23.0 0.00 0.29 0.00 79 992.1
20191022120636 47 248 18.0 30.0 0.00 0.29 0.00 80 992.1
20191022120136 47 228 16.0 30.0 0.00 0.29 0.00 80 992.0
20191022115636 47 262 12.0 22.0 0.00 0.29 0.00 80 992.0
20191022115136 47 205 13.0 22.0 0.00 0.29 0.00 80 992.1
20191022114636 46 217 9.0 21.0 0.00 0.29 0.00 81 992.0
20191022114136 46 219 7.0 21.0 0.00 0.29 0.00 83 991.9
20191022113636 46 201 12.0 21.0 0.00 0.29 0.00 82 992.0
20191022113136 47 222 15.0 28.0 0.00 0.29 0.00 81 992.0
20191022112636 47 265 10.0 28.0 0.00 0.29 0.00 81 991.9
20191022112136 47 232 12.0 21.0 0.00 0.29 0.00 80 992.0
20191022111636 47 207 13.0 23.0 0.00 0.29 0.00 80 992.1
20191022111136 47 227 7.0 23.0 0.00 0.29 0.00 80 992.0
20191022110636 47 203 10.0 21.0 0.00 0.29 0.00 80 991.9
20191022110136 47 256 14.0 25.0 0.00 0.29 0.00 80 992.0
20191022105636 47 229 7.0 28.0 0.00 0.29 0.00 80 992.0
20191022105136 47 256 5.0 28.0 0.00 0.29 0.00 80 992.1
20191022104636 47 222 14.0 24.0 0.00 0.29 0.00 80 992.0
20191022104137 47 226 23.0 24.0 0.00 0.29 0.00 80 992.1
20191022103636 47 178 15.0 24.0 0.00 0.29 0.00 81 992.2
20191022103137 47 215 7.0 20.0 0.00 0.29 0.00 81 992.2
20191022102636 47 217 9.0 20.0 0.00 0.29 0.00 81 992.2
20191022102136 47 205 9.0 20.0 0.00 0.29 0.00 81 992.2
20191022101636 47 209 15.0 19.0 0.00 0.29 0.00 81 992.2
20191022101136 47 165 5.0 20.0 0.00 0.29 0.00 81 992.5
20191022100636 47 239 8.0 25.0 0.00 0.29 0.00 80 992.4
20191022100136 47 222 5.0 25.0 0.00 0.29 0.00 79 992.4
20191022095636 47 203 11.0 21.0 0.00 0.29 0.00 80 992.5
20191022095137 47 235 12.0 21.0 0.00 0.29 0.00 80 992.6
20191022094636 47 225 8.0 21.0 0.00 0.29 0.00 80 992.6
20191022094136 47 228 10.0 21.0 0.00 0.29 0.00 79 992.5
20191022093636 48 223 10.0 31.0 0.00 0.29 0.00 78 992.6
20191022093136 48 294 7.0 31.0 0.00 0.29 0.00 78 992.7
20191022092636 48 171 13.0 29.0 0.00 0.29 0.00 78 992.6
20191022092136 48 224 4.0 18.0 0.00 0.29 0.00 79 992.8
20191022091636 47 236 9.0 20.0 0.00 0.29 0.00 79 992.8
20191022091136 47 174 12.0 20.0 0.00 0.29 0.00 79 992.8
20191022090637 47 222 11.0 19.0 0.00 0.29 0.00 79 993.0
20191022090136 47 133 14.0 19.0 0.00 0.29 0.00 79 993.1
20191022085636 47 186 12.0 17.0 0.00 0.29 0.00 80 993.0
20191022085136 47 232 10.0 19.0 0.00 0.29 0.00 80 993.0
20191022084636 47 214 5.0 19.0 0.00 0.29 0.00 80 993.1
20191022084136 47 200 6.0 19.0 0.00 0.29 0.00 81 993.2
20191022083636 47 208 5.0 17.0 0.00 0.29 0.00 81 993.4
20191022083136 47 223 6.0 17.0 0.00 0.29 0.00 81 993.5
20191022082636 47 177 7.0 17.0 0.00 0.29 0.00 80 993.7
20191022082136 47 205 7.0 19.0 0.00 0.29 0.00 80 993.7
20191022081636 47 190 6.0 19.0 0.00 0.29 0.00 80 993.7
20191022081136 47 210 17.0 19.0 0.00 0.29 0.00 80 993.9
20191022080636 47 222 12.0 22.0 0.00 0.29 0.00 79 993.9
20191022080136 48 203 8.0 22.0 0.00 0.29 0.00 78 993.8
20191022075636 48 221 11.0 31.0 0.00 0.29 0.00 78 993.8
20191022075136 49 184 11.0 31.0 0.00 0.29 0.00 76 993.9
20191022074636 50 219 9.0 30.0 0.00 0.29 0.00 74 993.9
20191022074136 51 200 24.0 27.0 0.00 0.29 0.00 71 993.5
20191022073636 51 184 9.0 27.0 0.00 0.29 0.00 70 993.5
20191022073136 51 179 14.0 22.0 0.00 0.29 0.00 70 993.4
20191022072636 51 168 10.0 19.0 0.00 0.29 0.00 70 993.5
20191022072136 51 236 15.0 24.0 0.00 0.29 0.00 70 993.7
20191022071636 51 205 8.0 24.0 0.00 0.29 0.00 70 993.7
20191022071136 51 170 9.0 21.0 0.00 0.29 0.00 70 993.9
20191022070636 51 163 10.0 20.0 0.00 0.29 0.00 70 994.0
20191022070136 51 188 14.0 20.0 0.00 0.29 0.00 70 994.1
20191022065636 51 193 12.0 20.0 0.00 0.29 0.00 70 994.2
20191022065136 51 195 11.0 22.0 0.00 0.29 0.00 70 994.1
20191022064636 51 193 14.0 22.0 0.00 0.29 0.00 70 994.3
20191022064136 51 186 7.0 20.0 0.00 0.29 0.00 70 994.4
20191022063636 51 214 8.0 18.0 0.00 0.29 0.00 70 994.4
20191022063137 51 200 7.0 18.0 0.00 0.29 0.00 70 994.5
20191022062637 51 184 9.0 19.0 0.00 0.29 0.00 70 994.6
20191022062137 51 214 13.0 19.0 0.00 0.29 0.00 70 994.5
20191022061636 51 217 9.0 18.0 0.00 0.29 0.00 70 994.7
20191022061136 51 103 8.0 17.0 0.00 0.29 0.00 70 994.7
20191022060636 51 201 6.0 17.0 0.00 0.29 0.00 70 994.7
20191022060136 51 204 8.0 17.0 0.00 0.29 0.00 70 994.8
20191022055636 51 205 17.0 17.0 0.00 0.29 0.00 70 994.8
20191022055136 50 208 7.0 16.0 0.00 0.29 0.00 70 995.0
20191022054636 50 203 7.0 19.0 0.00 0.29 0.00 70 995.0
20191022054136 50 172 9.0 19.0 0.00 0.29 0.00 70 995.0
20191022053636 50 187 8.0 17.0 0.00 0.29 0.00 70 995.1
20191022053136 50 194 7.0 17.0 0.00 0.29 0.00 71 995.2
20191022052636 50 225 6.0 15.0 0.00 0.29 0.00 70 995.3
20191022052136 50 187 5.0 15.0 0.00 0.29 0.00 71 995.2
20191022051636 50 226 7.0 14.0 0.00 0.29 0.00 71 995.3
20191022051136 50 197 7.0 12.0 0.00 0.29 0.00 71 995.4
20191022050636 50 229 10.0 12.0 0.00 0.29 0.00 71 995.3
20191022050136 50 187 6.0 10.0 0.00 0.29 0.00 71 995.4
20191022045636 50 193 6.0 13.0 0.00 0.29 0.00 71 995.4
20191022045136 50 211 7.0 15.0 0.00 0.29 0.29 70 995.4
20191022044636 50 158 8.0 15.0 0.00 0.29 0.29 70 995.5
20191022044136 50 186 3.0 13.0 0.00 0.29 0.29 69 995.6
20191022043636 50 219 5.0 13.0 0.00 0.29 0.29 69 995.7
20191022043137 50 204 12.0 13.0 0.00 0.29 0.29 69 995.7
20191022042636 50 201 5.0 14.0 0.00 0.29 0.29 68 995.7
20191022042136 51 205 13.0 16.0 0.00 0.29 0.29 68 995.8
20191022041636 51 188 11.0 16.0 0.00 0.29 0.29 67 995.9
20191022041136 51 235 7.0 14.0 0.00 0.29 0.29 67 996.0
20191022040636 51 228 8.0 16.0 0.00 0.29 0.29 67 995.9
20191022040136 51 239 8.0 16.0 0.00 0.29 0.29 66 996.0
20191022035636 51 184 7.0 13.0 0.00 0.29 0.29 66 996.1
20191022035136 51 166 4.0 14.0 0.00 0.29 0.29 66 996.2
20191022034636 51 153 8.0 14.0 0.00 0.29 0.29 65 996.2
20191022034136 51 226 6.0 17.0 0.00 0.29 0.29 65 996.3
20191022033636 52 222 13.0 17.0 0.00 0.29 0.29 65 996.3
20191022033136 51 236 10.0 17.0 0.00 0.29 0.29 65 996.3
20191022032636 52 243 10.0 17.0 0.00 0.29 0.29 64 996.5
20191022032136 52 211 15.0 17.0 0.00 0.29 0.29 64 996.6
20191022031636 52 247 6.0 15.0 0.00 0.29 0.29 64 996.6
20191022031136 52 235 9.0 16.0 0.00 0.29 0.29 64 996.6
20191022030636 52 201 7.0 22.0 0.00 0.29 0.29 63 996.6
20191022030136 52 229 8.0 22.0 0.00 0.29 0.29 63 996.7
20191022025636 52 205 22.0 22.0 0.00 0.29 0.29 63 996.7
20191022025136 52 204 10.0 19.0 0.00 0.29 0.29 63 996.7
20191022024636 52 240 7.0 19.0 0.00 0.29 0.29 63 996.7
20191022024136 52 132 12.0 19.0 0.00 0.29 0.29 63 996.7
20191022023636 52 197 6.0 17.0 0.00 0.29 0.29 62 996.7
20191022023136 52 225 10.0 21.0 0.00 0.29 0.29 62 996.7
20191022022635 52 228 10.0 21.0 0.00 0.29 0.29 62 996.7
20191022022136 52 194 16.0 27.0 0.00 0.29 0.29 61 996.6
20191022021636 53 214 5.0 27.0 0.00 0.29 0.29 61 996.8
20191022021136 53 211 14.0 18.0 0.00 0.29 0.29 61 996.8
20191022020636 53 235 8.0 18.0 0.00 0.29 0.29 60 996.8
20191022020136 53 251 8.0 19.0 0.00 0.29 0.29 60 996.8
20191022015636 53 222 9.0 24.0 0.00 0.29 0.29 61 996.9
20191022015136 53 229 10.0 25.0 0.00 0.29 0.29 61 996.7
20191022014635 54 253 15.0 25.0 0.00 0.29 0.29 61 996.9
20191022014136 54 236 12.0 18.0 0.00 0.29 0.29 63 996.7
20191022013636 54 226 16.0 19.0 0.00 0.29 0.29 64 996.7
20191022013136 55 218 10.0 20.0 0.00 0.29 0.29 63 996.7
20191022012636 55 243 13.0 21.0 0.00 0.29 0.29 63 996.6
20191022012135 55 179 12.0 21.0 0.00 0.29 0.29 63 996.6
20191022011635 55 205 16.0 17.0 0.00 0.29 0.29 64 996.7
20191022011136 55 277 6.0 12.0 0.00 0.29 0.29 64 996.4
20191022010636 55 242 2.0 12.0 0.00 0.29 0.29 64 996.4
20191022010136 55 193 9.0 16.0 0.00 0.29 0.29 64 996.3
20191022005636 55 191 11.0 16.0 0.00 0.29 0.29 64 996.4
20191022005136 55 210 13.0 14.0 0.00 0.29 0.29 64 996.2
20191022004635 55 219 5.0 13.0 0.00 0.29 0.29 64 996.3
20191022004136 55 265 3.0 12.0 0.00 0.29 0.29 64 996.3
20191022003635 55 181 4.0 14.0 0.00 0.29 0.29 63 996.2
20191022003136 56 200 6.0 14.0 0.00 0.29 0.29 62 996.3
20191022002636 56 214 10.0 15.0 0.00 0.29 0.29 61 996.3
20191022002135 56 153 4.0 15.0 0.00 0.29 0.29 61 996.4
20191022001635 56 219 4.0 14.0 0.00 0.29 0.29 61 996.3
20191022001136 56 240 6.0 19.0 0.00 0.29 0.29 60 996.2
20191022000635 57 216 12.0 19.0 0.00 0.29 0.29 59 996.1
20191022000135 57 205 8.0 15.0 0.00 0.29 0.29 59 996.0
20191021235635 57 211 7.0 23.0 0.00 0.29 0.29 58 995.9
20191021235136 57 203 11.0 23.0 0.00 0.29 0.29 57 995.9
20191021234635 58 239 14.0 17.0 0.00 0.29 0.29 57 995.8
20191021234136 58 226 9.0 20.0 0.00 0.29 0.29 57 995.7
20191021233635 58 195 14.0 20.0 0.00 0.29 0.29 57 995.6
20191021233136 58 198 7.0 17.0 0.00 0.29 0.29 57 995.6
20191021232635 58 197 7.0 18.0 0.00 0.29 0.29 56 995.4
20191021232136 59 207 6.0 18.0 0.00 0.29 0.29 56 995.3
20191021231636 59 250 9.0 17.0 0.00 0.29 0.29 56 995.3
20191021231136 59 249 11.0 19.0 0.00 0.29 0.29 57 995.1
20191021230635 60 247 14.0 19.0 0.00 0.29 0.29 59 995.0
20191021230135 60 262 18.0 19.0 0.00 0.29 0.29 62 994.9
20191021225636 60 219 6.0 15.0 0.00 0.29 0.29 61 994.8
20191021225136 60 190 8.0 17.0 0.00 0.29 0.29 60 994.5
20191021224635 61 197 7.0 17.0 0.00 0.29 0.29 59 994.4
20191021224135 61 203 9.0 21.0 0.00 0.29 0.29 60 994.4
20191021223636 61 216 6.0 24.0 0.00 0.29 0.29 59 994.2
20191021223135 61 208 9.0 24.0 0.00 0.29 0.29 59 994.1
20191021222635 61 242 5.0 19.0 0.00 0.29 0.29 61 994.1
20191021222136 62 211 5.0 21.0 0.00 0.29 0.29 61 994.0
20191021221635 62 198 17.0 21.0 0.00 0.29 0.29 60 993.9
20191021221135 63 219 15.0 21.0 0.00 0.29 0.29 61 993.9
20191021220635 63 211 12.0 21.0 0.00 0.29 0.29 61 993.8
20191021220136 63 212 13.0 22.0 0.00 0.29 0.29 68 993.8
20191021215636 63 222 14.0 22.0 0.00 0.29 0.29 73 993.6
20191021215136 63 180 17.0 17.0 0.00 0.29 0.29 77 993.6
20191021214635 63 198 11.0 14.0 0.00 0.29 0.29 80 993.6
20191021214135 63 152 6.0 14.0 0.00 0.29 0.29 81 993.6
20191021213635 62 197 3.0 9.0 0.00 0.29 0.29 83 993.4
20191021213135 62 200 4.0 10.0 0.00 0.29 0.29 84 993.5
20191021212635 62 158 5.0 10.0 0.00 0.29 0.29 84 993.3
20191021212135 62 186 6.0 9.0 0.00 0.29 0.29 84 993.5
20191021211636 62 195 1.0 9.0 0.00 0.29 0.29 85 993.5
20191021211135 62 191 4.0 11.0 0.00 0.29 0.29 86 993.5
20191021210635 61 197 3.0 11.0 0.00 0.29 0.29 85 993.6
20191021210136 61 150 9.0 11.0 0.00 0.29 0.29 86 993.6
20191021205635 61 132 5.0 10.0 0.00 0.29 0.29 86 993.8
20191021205136 61 143 8.0 11.0 0.00 0.29 0.29 87 993.7
20191021204635 61 162 6.0 11.0 0.00 0.29 0.29 87 993.7
20191021204135 61 153 5.0 9.0 0.00 0.29 0.29 88 993.6
20191021203635 61 124 4.0 10.0 0.00 0.29 0.29 87 993.6
20191021203135 61 169 4.0 14.0 0.00 0.29 0.29 88 993.5
20191021202635 61 158 6.0 14.0 0.00 0.29 0.29 87 993.4
20191021202135 61 125 13.0 14.0 0.00 0.29 0.29 88 993.4
20191021201635 61 120 7.0 14.0 0.01 0.29 0.29 88 993.5
20191021201135 61 197 5.0 14.0 0.01 0.29 0.29 89 993.4
20191021200635 60 156 12.0 15.0 0.02 0.29 0.29 89 993.5
20191021200135 60 204 5.0 15.0 0.02 0.29 0.29 89 993.4
20191021195635 59 143 7.0 16.0 0.03 0.29 0.29 89 993.4
20191021195135 59 173 8.0 17.0 0.05 0.29 0.29 89 993.5
20191021194636 59 180 10.0 17.0 0.05 0.29 0.29 89 993.5
20191021194135 58 150 13.0 14.0 0.05 0.29 0.29 89 993.4
20191021193635 58 152 5.0 14.0 0.07 0.29 0.29 90 993.4
20191021193136 58 153 9.0 15.0 0.09 0.29 0.29 90 993.4
20191021192635 58 158 11.0 18.0 0.10 0.29 0.29 90 993.4
20191021192135 57 174 10.0 26.0 0.10 0.29 0.29 90 993.3
20191021191635 57 172 6.0 26.0 0.11 0.28 0.28 90 993.7
20191021191135 57 196 10.0 19.0 0.11 0.28 0.28 90 993.8
20191021190636 57 174 8.0 16.0 0.10 0.27 0.27 90 993.9
20191021190135 57 203 4.0 16.0 0.10 0.27 0.27 89 993.7
20191021185635 57 197 13.0 19.0 0.09 0.26 0.26 89 993.7
20191021185135 56 170 9.0 25.0 0.07 0.24 0.24 89 993.6
20191021184636 56 133 6.0 25.0 0.08 0.24 0.24 89 993.4
20191021184135 56 145 15.0 21.0 0.08 0.24 0.24 89 993.3
20191021183635 56 146 12.0 23.0 0.07 0.22 0.22 89 993.3
20191021183135 56 149 19.0 23.0 0.05 0.20 0.20 89 993.4
20191021182635 56 139 7.0 27.0 0.04 0.19 0.19 89 993.4
20191021182135 56 98 14.0 27.0 0.05 0.19 0.19 89 993.4
20191021181635 56 154 15.0 30.0 0.03 0.17 0.17 89 993.4
20191021181135 56 193 15.0 30.0 0.04 0.17 0.17 89 993.7
20191021180635 56 146 12.0 27.0 0.06 0.17 0.17 89 993.8
20191021180135 56 130 9.0 24.0 0.06 0.17 0.17 89 993.8
20191021175635 56 136 9.0 26.0 0.06 0.17 0.17 89 993.9
20191021175135 56 126 11.0 27.0 0.06 0.17 0.17 89 994.1
20191021174635 56 127 8.0 27.0 0.05 0.16 0.16 89 994.2
20191021174135 56 159 19.0 29.0 0.05 0.16 0.16 89 994.5
20191021173635 56 163 10.0 29.0 0.04 0.15 0.15 89 994.6
20191021173135 56 166 11.0 30.0 0.04 0.15 0.15 89 994.7
20191021172635 56 135 15.0 30.0 0.04 0.15 0.15 89 994.8
20191021172135 55 166 15.0 22.0 0.03 0.14 0.14 89 994.9
20191021171635 55 155 6.0 22.0 0.03 0.14 0.14 89 995.1
20191021171136 55 155 4.0 25.0 0.03 0.13 0.13 88 995.3
20191021170635 55 143 11.0 25.0 0.02 0.11 0.11 88 995.4
20191021170135 55 110 17.0 28.0 0.04 0.11 0.11 88 995.5
20191021165636 55 127 21.0 28.0 0.06 0.11 0.11 88 995.6
20191021165136 55 133 18.0 27.0 0.08 0.11 0.11 89 995.7
20191021164635 55 105 7.0 22.0 0.09 0.11 0.11 89 995.7
20191021164135 54 115 8.0 22.0 0.09 0.11 0.11 89 995.7
20191021163635 54 113 14.0 22.0 0.10 0.11 0.11 89 995.5
20191021163136 54 197 3.0 20.0 0.11 0.11 0.11 89 995.6
20191021162635 54 98 13.0 19.0 0.11 0.11 0.11 89 995.5
20191021162135 54 80 14.0 21.0 0.11 0.11 0.11 89 995.8
20191021161635 54 80 10.0 21.0 0.11 0.11 0.11 89 996.0
20191021161135 54 85 11.0 20.0 0.10 0.10 0.10 89 996.3
20191021160635 54 78 11.0 20.0 0.09 0.09 0.09 89 996.3
20191021160135 54 77 11.0 19.0 0.07 0.07 0.07 88 996.8
20191021155636 54 120 10.0 19.0 0.05 0.05 0.05 88 996.9
20191021155135 54 129 13.0 22.0 0.03 0.03 0.03 88 997.2
20191021154635 54 78 10.0 22.0 0.02 0.02 0.02 87 997.5
20191021154136 54 85 13.0 20.0 0.02 0.02 0.02 87 997.8
20191021153635 54 120 9.0 22.0 0.01 0.01 0.01 86 997.8
20191021153135 55 148 7.0 22.0 0.00 0.00 0.00 85 998.1
20191021152635 54 124 17.0 19.0 0.00 0.00 0.00 85 998.3
20191021152135 54 85 11.0 17.0 0.00 0.00 0.00 85 998.4
20191021151635 54 86 6.0 19.0 0.00 0.00 0.00 85 998.7
20191021151135 54 106 12.0 19.0 0.00 0.00 0.00 84 998.9
20191021150635 54 101 14.0 18.0 0.00 0.00 0.00 84 998.9
20191021150135 55 96 16.0 23.0 0.00 0.00 0.00 82 998.6
20191021145635 55 124 15.0 25.0 0.00 0.00 0.00 82 997.9
20191021145135 55 82 8.0 25.0 0.00 0.00 0.00 82 998.7
20191021144635 54 73 4.0 19.0 0.00 0.00 0.00 82 998.8
20191021144135 54 89 11.0 19.0 0.00 0.00 0.00 82 999.4
20191021143635 54 95 10.0 19.0 0.00 0.00 0.00 83 999.9
20191021143135 54 78 5.0 16.0 0.00 0.00 0.00 83 1000.5
20191021142635 54 114 10.0 14.0 0.00 0.00 0.00 83 1000.9
20191021142135 54 173 4.0 14.0 0.00 0.00 0.00 83 1001.2
20191021141635 54 91 5.0 15.0 0.00 0.00 0.00 84 1001.5
20191021141135 54 125 14.0 15.0 0.00 0.00 0.00 84 1001.7
20191021140705 54 78 11.0 13.0 0.00 0.00 0.00 84 1001.9
20191021135634 54 89 12.0 14.0 0.00 0.00 0.00 85 1002.2
20191021135134 54 129 5.0 17.0 0.00 0.00 0.00 85 1002.4
20191021134634 54 118 5.0 17.0 0.00 0.00 0.00 86 1002.5
20191021134134 54 69 8.0 17.0 0.00 0.00 0.00 86 1002.8
20191021133634 54 87 8.0 17.0 0.00 0.00 0.00 86 1002.9
20191021133134 54 61 12.0 18.0 0.00 0.00 0.00 87 1003.0
20191021132634 54 117 8.0 18.0 0.00 0.00 0.00 87 1003.1
20191021132134 53 97 5.0 18.0 0.00 0.00 0.00 88 1003.1
20191021131634 53 122 13.0 17.0 0.00 0.00 0.00 89 1003.3
20191021131134 53 119 6.0 16.0 0.00 0.00 0.00 90 1003.4
20191021130634 53 124 8.0 16.0 0.00 0.00 0.00 90 1003.4
20191021130134 53 101 2.0 13.0 0.00 0.00 0.00 90 1003.5
20191021125634 52 102 8.0 18.0 0.00 0.00 0.00 91 1003.5
20191021125134 52 230 6.0 18.0 0.00 0.00 0.00 91 1003.5
20191021124634 52 91 5.0 12.0 0.00 0.00 0.00 91 1003.4
20191021124134 52 129 6.0 12.0 0.00 0.00 0.00 91 1003.6
20191021123634 52 113 4.0 14.0 0.00 0.00 0.00 91 1003.6
20191021123134 52 75 10.0 14.0 0.00 0.00 0.00 91 1003.7